Simultaneous Nadir Overpasses (SNOs) Predictions

Prediction of SNOs between AQUA and NOAA-19 Satellite Orbit:

Table of predicted SNOs for the next 14.0 days since TLE Epoch: 3/14/2014
Index Date (AQUA) Time (AQUA) Lat,Lon (AQUA) SZA (AQUA ) Date (NOAA-19) Time (NOAA-19) Lat,Lon (NOAA-19) SZA (NOAA-19 ) Distance(km) Time Diff (sec)
1 03/16/2014 13:40:18 73.84, -30.74 75.54 03/16/2014 13:39:49 73.85, -30.78 75.55 1.33 29
2 03/16/2014 14:29:03 -71.70, 141.04 106.74 03/16/2014 14:30:11 -71.69, 141.10 106.76 2.35 68
3 03/18/2014 18:24:42 74.02,-102.24 74.86 03/18/2014 18:23:51 74.01,-102.17 74.86 2.34 51
4 03/18/2014 19:13:33 -72.21, 69.07 107.08 03/18/2014 19:14:20 -72.20, 69.14 107.10 2.65 47
5 03/20/2014 23:09:13 74.61,-174.72 74.63 03/20/2014 23:08:02 74.62,-174.76 74.66 1.61 71
6 03/20/2014 23:58:05 -72.87, -3.24 107.27 03/20/2014 23:58:32 -72.86, -3.22 107.27 0.89 27
7 03/23/2014 04:42:29 -73.15, -74.87 107.84 03/23/2014 04:42:36 -73.14, -74.79 107.85 2.66 7
8 03/25/2014 09:26:55 -73.57,-146.83 108.26 03/25/2014 09:26:43 -73.57,-146.76 108.26 2.39 12
9 03/25/2014 10:14:16 66.65, 31.06 64.71 03/25/2014 10:15:29 66.74, 31.74 64.82 31.36 73
10 03/27/2014 14:11:23 -74.15, 140.83 108.51 03/27/2014 14:10:53 -74.15, 140.82 108.50 0.14 30




NCC Satellite Simultaneous Nadir Overpasses (SNOs) Prediction Service
